Volver al catálogo

STARLINK-4428

ActivoComunicacionesSSO
NORAD 53672·PAYLOAD·🇺🇸 United States

Lanzado Aug 31, 2022 desde Vandenberg Space Force Base

Loading…

Próximos Pases (próximas 24 horas)

TLE

ActualizadoSource: CelesTrak SupGP

Época: Sep 14, 2026, 21:24 UTC

1 53672C 22105AA  26257.89215278 -.00020290  00000+0 -14091-2 0  2575
2 53672  97.2840 132.0011 0002407  83.8229 159.1075 15.05656910    15

Sigue STARLINK-4428 en tiempo real con AllMySat

Download on the App Store